Regional Weather Roundup
Issued by NWS Kansas City/Pleasant Hill, MO

Home | Current Version | Previous Version | Graphics & Text | Print | Product List | Glossary Off
Versions: 1 2 3 4 5 6 7 8 9 10 11 12 13 14 15 16 17 18 19 20 21 22 23 24 25 26 27 28

000
ASUS43 KEAX 190810
RWREAX

WEATHER ROUNDUP FOR EASTERN KANSAS AND NORTHWEST MISSOURI
NATIONAL WEATHER SERVICE KANSAS CITY/PLEASANT HILL MO
200 AM CST SUN NOV 19 2017

KSZ040-057-103>105-MOZ028-029-037-043-190900-
...KANSAS CITY METROPOLITAN AREA...

CITY           SKY/WX    TMP DP  RH WIND       PRES   REMARKS
K.C. INTL      CLEAR     32  25  75 NW8       30.20F WCI  25
K.C. DOWNTOWN  CLEAR     36  26  67 W5        30.22S WCI  32
LEES SUMMIT    CLEAR     33  25  72 NW7       30.21S WCI  27
OLATHE - IXD   CLEAR     31  26  82 W6        30.22S WCI  25
OLATHE - OJC   CLEAR     33  26  75 NW7       30.21S WCI  27
LAWRENCE       CLEAR     28  25  88 NW3       30.24S

$$

MOZ001>008-011>017-020>025-030>033-038>040-044>046-053-054-190900-
...NORTHERN AND CENTRAL MISSOURI...

CITY           SKY/WX    TMP DP  RH WIND       PRES   REMARKS
ST. JOSEPH     CLEAR     30  24  78 NW8       30.22S WCI  22
MOSBY          SUNNY     32  25  74 NW3       30.22R
WARRENSBURG    CLEAR     32  27  80 NW5       30.20S WCI  27
WHITEMAN AFB   CLEAR     33  19  55 NW5       30.16R WCI  29
CLINTON        CLEAR     34  25  69 MISG      30.22R
SEDALIA        CLEAR     35  24  64 NW8       30.20R WCI  29
WARSAW         NOT AVBL
CHILLICOTHE      N/A     32  21  64 NW7       30.19R WCI  26
KIRKSVILLE     CLEAR     30  22  72 NW10      30.13R WCI  21

$$

MOZ041-047>049-056>058-063>065-088>090-097-190900-
...EASTERN AND SOUTHERN MISSOURI...

CITY           SKY/WX    TMP DP  RH WIND       PRES   REMARKS
ST. LOUIS INTL CLEAR     35  23  61 NW10      30.09R WCI  27
SPIRIT OF STL  CLEAR     36  27  69 NW8       30.10S WCI  30
COLUMBIA       CLEAR     34  26  72 NW9       30.15R WCI  27
JEFFERSON CITY PTCLDY    36  26  67 NW6       30.17R WCI  31
ROLLA          CLEAR     34  25  69 NW13      30.13S WCI  25
OSAGE BEACH    CLEAR     37  22  54 NW7G17    30.18R WCI  32
SPRINGFIELD    CLEAR     36  29  75 NW6       30.18S WCI  31
BRANSON        CLEAR     39  27  60 NW8       30.20R WCI  34
JOPLIN         CLEAR     36  30  79 CALM      30.23F
WEST PLAINS    CLEAR     39  20  46 NW9G20    30.14R WCI  33

$$

IAZ060-094-KSZ022-034>040-054-083-096-NEZ052-066-093-190900-
...KANSAS...SOUTHEAST NEBRASKA AND IOWA...

CITY           SKY/WX    TMP DP  RH WIND       PRES   REMARKS
TOPEKA         PTCLDY    31  27  85 W3        30.23F
MANHATTAN      CLEAR     29  24  82 CALM      30.25S
EMPORIA        CLEAR     31  24  75 CALM      30.24S
CHANUTE        CLEAR     33  27  78 W5        30.25S WCI  29
WICHITA        CLEAR     34  25  69 NW6       30.27S WCI  29
OMAHA          CLEAR     28  18  66 W6        30.22S WCI  22
LINCOLN        CLEAR     24  21  88 N3        30.24S
FALLS CITY     CLEAR     29  23  78 NW7       30.23R WCI  22
LAMONI         CLEAR     29  19  66 NW15G22   30.15R WCI  18
DES MOINES     PTCLDY    28  19  69 NW10      30.14R WCI  19

$$





USA.gov is the U.S. government's official web portal to all federal, state and local government web resources and services.